Deadwood, SD (57732)

2:24 PM MST on February 06, 2016 (GMT -0700)
Dumont Trailhead | | Change Station
CLOSE
Current Station
Personal Weather Station
Location: Lead, SD
Elevation: 6070 ft
Nearby Weather Stations
Active Advisory: High Wind Warning

Elev 6070 ft 44.23 °N, 103.78 °W | Updated 9 minutes ago

Partly Cloudy
Partly Cloudy
42.2 °F
Feels Like 42 °F
N
3.0
Wind Variable Wind from SW
Gusts 8.0 mph

Today
High -- | Low -- °F
--% Chance of Precip.
Yesterday
High -- | Low -- °F
Precip. -- in
Pressure 29.88 in
Visibility 10.0 miles
Clouds Clear
Windchill 42 °F
Dew Point 21 °F
Humidity 42%
Rainfall 0.00 in
Snow Depth Not available.
7:07 AM 5:10 PM
Waning Crescent, 4% visible
METAR KSPF 062115Z AUTO 27016G26KT 10SM CLR 09/M06 A2988 RMK AO2
Pressure 29.88 in
Visibility 10.0 miles
Clouds Clear
Windchill 42 °F
Dew Point 21 °F
Humidity 42%
Rainfall 0.00 in
Snow Depth Not available.
7:07 AM 5:10 PM
Waning Crescent, 4% visible
METAR KSPF 062115Z AUTO 27016G26KT 10SM CLR 09/M06 A2988 RMK AO2

10-Day Weather Forecast

Almanac

Astronomy

Feb. 06, 2016 Rise Set
Actual Time
Civil Twilight
Nautical Twilight
Astronomical Twilight
Moon
Length of Visible Light
Length of Day
Tomorrow will be .
, % of the Moon is Illuminated

Today's Extremes

State Highs State Lows

Community

WunderPhotos

Upload Photos

1,891,050 photos uploaded!

WunderBlog® & News

Nearby

Air Quality

  Air Quality AQ Index Pollutant
Not available.

Snow Depth

Station Depth Elevation

Earthquake Activity

City Distance Mag. Time & Date
Minimum magnitude displayed is 2.5.

Coastal Water Temperatures

Place Temperature

Stations

Nearby Weather Stations

Station Location Temp. Windchill Dew Point Humidity Wind Precip. Elev Updated Type
                   

Watches & Warnings

High Wind Warning
Issued: 1:35 PM MST Feb. 6, 2016 – National Weather Service

... High Wind Warning remains in effect from 11 PM this evening to
8 PM MST Sunday...

* timing... late tonight through Sunday evening.

* Winds... northwest 25 to 35 mph with gusts up to 60 mph.

* Impacts... the high winds may lead to several dead trees
falling down on roads and trails.